Location: Greenwich
(51.4790°N, 0.0090°E)
Time: 18:52:05
(UTC+01:00)

Vanguard 1 Rocket - All Passes

Search period start: 19 April 2024 00:00
Search period end: 29 April 2024 00:00
Orbit: 652 x 4219 km, 34.3° (Epoch: 18 April)

Date Brightness Start Highest point End Pass type
(mag) Time Alt. Az. Time Alt. Az. Time Alt. Az.
19 Apr - 00:42:27 10° WSW 00:50:09 23° SSW 01:01:49 10° SSE visible
19 Apr - 21:08:11 10° SW 21:13:07 22° SSE 21:20:25 10° ESE visible
19 Apr - 23:31:05 10° WSW 23:37:50 24° S 23:48:27 10° SE visible
20 Apr - 01:57:54 10° SW 02:03:53 14° SSW 02:11:29 10° S visible
20 Apr - 19:58:28 10° SSW 20:01:54 16° SSE 20:06:21 10° ESE daylight
20 Apr - 22:20:13 10° SW 22:25:55 24° S 22:34:44 10° SE visible
21 Apr - 00:44:54 10° WSW 00:51:21 18° SSW 01:00:23 10° SSE visible
21 Apr - 21:09:45 10° SW 21:14:21 21° S 21:21:01 10° SE visible
21 Apr - 23:33:10 10° SW 23:39:06 20° SSW 23:47:50 10° SSE visible
22 Apr - 19:59:46 10° SSW 20:03:07 16° SSE 20:07:23 10° SE daylight
22 Apr - 22:22:05 10° SW 22:27:13 20° S 22:34:44 10° SE visible
23 Apr - 00:48:15 10° SW 00:52:34 13° SSW 00:57:55 10° S visible
23 Apr - 18:51:27 10° SSE 18:52:03 10° SSE 18:52:40 10° SSE daylight
23 Apr - 21:11:27 10° SW 21:15:38 19° S 21:21:29 10° SE visible
23 Apr - 23:35:40 10° SW 23:40:23 15° SSW 23:46:42 10° SSE visible
24 Apr - 20:01:13 10° SSW 20:04:21 16° SSE 20:08:16 10° SE daylight
24 Apr - 22:24:12 10° SW 22:28:32 17° S 22:34:25 10° SSE visible
25 Apr - 18:51:55 10° S 18:53:14 11° SSE 18:54:38 10° SSE daylight
25 Apr - 21:13:19 10° SW 21:16:57 16° S 21:21:44 10° SE visible
25 Apr - 23:39:31 10° SSW 23:41:41 11° SSW 23:44:07 10° S visible
26 Apr - 20:02:51 10° SSW 20:05:37 14° S 20:08:59 10° SE daylight
26 Apr - 22:26:54 10° SW 22:29:51 13° SSW 22:33:26 10° SSE visible
27 Apr - 18:53:01 10° S 18:54:27 11° SSE 18:55:59 10° SSE daylight
27 Apr - 21:15:32 10° SSW 21:18:16 13° S 21:21:36 10° SSE visible
28 Apr - 20:04:44 10° SSW 20:06:55 13° S 20:09:24 10° SSE daylight
